[[{"header":{"parameterUnit":"m.s-1","parameterCategory":1,"la1":30.2991,"la2":30.254,"lo1":-89.0895,"lo2":-89.0444,"dy":0.0017,"dx":0.0017,"nx":28,"ny":28,"refTime":"2025-12-29T09:00:00:Z","depth":0,"parameterNumber":2,"parameterNumberName":"U-component_of_WINDS"},"data":[0,0,0,0,0,0,0,0,0,0,0,0,0,0,0,0,0,0,0,0,0,0,0,0,0,0,0,0,0,0,0,0,0,0,0,0,0,0,0,0,0,0,0,0,0,0,0,0,0,0,0,0,0,0,0,0,0,0,2.9958,2.9959,0,3.0005,3.0005,3.0006,2.9991,2.999,2.9989,2.9988,3.0032,3.0034,3.0036,0,0,0,0,0,0,0,0,0,0,0,0,0,2.9854,2.9856,2.9958,2.9959,2.9959,3.0005,3.0005,3.0006,2.9991,2.999,2.9988,2.9987,3.0031,3.0034,3.0036,0,0,0,0,0,0,0,0,0,0,0,0,0,2.99,2.9857,2.9958,2.9957,2.9958,3.0004,3.0005,3.0006,2.9991,2.9989,2.9988,2.9987,3.003,3.0033,3.0037,3.0086,0,0,3.0046,3.0048,0,0,0,0,0,0,0,0,2.9897,2.9904,2.9957,2.9957,2.9958,2.999,2.9985,3.0033,2.9991,2.9978,2.9988,2.9986,3.0019,3.0023,3.0035,3.0088,3.009,3.0047,3.0048,3.005,3.0051,0,0,0,0,0,0,0,2.9894,2.9901,2.9976,2.9957,2.9958,2.9954,2.9959,2.9994,3.0006,2.9979,2.9978,2.9984,3.0019,3.0032,3.0036,3.009,3.0046,3.0049,3.0051,3.0052,3.0188,3.019,0,0,0,0,0,0,2.9891,2.9899,2.9975,2.9978,2.9923,2.9957,2.9963,2.9981,3.0006,3.0008,2.9985,2.9983,3.0027,3.0032,3.0037,3.0098,3.005,3.0053,3.0055,3.0187,3.0189,3.019,0,0,0,0,0,0,2.9889,2.9898,2.9973,2.9938,2.9947,2.9961,2.9982,2.9983,2.9996,3.0011,3.0012,2.9996,3.0026,3.0033,3.0075,3.0099,3.0054,3.0057,3.0184,3.0187,3.019,3.0218,0,0,0,0,0,0,2.9886,2.9897,2.9916,2.9939,2.9949,3.001,2.9983,2.9985,3.0002,3.0,3.0021,3.0024,3.0026,3.007,3.0078,3.0102,3.0059,3.0182,3.0186,3.0189,3.0215,3.0221,3.0226,0,0,0,0,0,2.9882,2.9921,2.9917,2.9926,2.9974,3.0011,3.0017,3.002,3.0004,3.0023,3.0033,3.0023,3.0095,3.0074,3.0083,3.0109,3.0181,3.0185,3.0188,3.0212,3.022,3.0226,0,0,0,0,0,0,2.9899,2.9924,2.992,2.9967,2.9988,3.0009,3.0032,3.0028,3.0052,3.0048,3.005,3.0055,3.0098,3.0108,3.0084,3.0159,3.0136,3.0141,3.0151,3.0158,3.0164,3.016,3.0062,0,0,0,0,0,2.9908,2.9938,2.9958,2.9998,3.0008,3.0019,3.0035,3.0036,3.0057,3.0065,3.0077,3.0097,3.0124,3.0142,3.0168,3.0217,3.0222,3.0239,3.0245,3.025,3.0254,3.0282,3.029,3.0203,3.0203,3.0203,0,0,2.9927,2.9945,2.9963,3.0002,3.0017,3.0047,3.0026,3.0058,3.008,3.0069,3.011,3.012,3.0142,3.0188,3.0209,3.0197,3.028,3.0255,3.0258,3.026,3.0287,3.0295,3.0303,3.0206,3.0205,3.0205,0,0,2.9978,2.9994,3.003,3.0047,3.0072,3.0079,3.0088,3.0111,3.0118,3.0159,3.0152,3.0178,3.0225,3.0241,3.0256,3.0316,3.0308,3.0324,3.0354,3.0382,3.0389,3.0395,3.0416,3.0424,3.0329,3.0329,3.0329,0,2.9998,3.0044,3.0048,3.0082,3.01,3.0093,3.013,3.0146,3.0177,3.0189,3.0177,3.0237,3.0251,3.0301,3.0317,3.0328,3.0338,3.0321,3.0387,3.0394,3.0399,3.042,3.0428,3.0331,3.0331,3.0331,3.0331,0,3.0068,3.01,3.0126,3.0159,3.0179,3.0214,3.0224,3.0244,3.0244,3.0253,3.0296,3.0313,3.0343,3.0355,3.0354,3.0406,3.0399,3.0387,3.0363,3.0409,3.0429,3.0437,3.0334,3.0333,3.0333,3.0332,0,0,3.0127,3.0165,3.0174,3.019,3.0219,3.0243,3.0278,3.031,3.0327,3.035,3.0379,3.0421,3.0411,3.0427,3.0429,3.0453,3.05,3.0438,3.0439,3.0449,3.0559,3.0568,3.0577,3.0496,3.0498,3.0499,3.0558,0,3.018,3.0243,3.025,3.0305,3.0336,3.0332,3.0362,3.0383,3.0393,3.042,3.043,3.046,3.0444,3.0454,3.0478,3.0489,3.0522,3.0485,3.0523,3.0524,3.0517,3.0587,3.0595,3.065,3.0565,3.0566,3.0567,0,3.0249,3.0276,3.0336,3.0363,3.0375,3.0403,3.0433,3.0459,3.0483,3.0489,3.0509,3.0508,3.0544,3.0521,3.0571,3.0546,3.0562,3.057,3.0572,3.0575,3.0548,3.0591,3.0667,3.0675,3.0579,3.0578,3.0578,0,3.0287,3.0338,3.0381,3.0395,3.0427,3.0446,3.046,3.0483,3.0502,3.0529,3.0541,3.0571,3.0587,3.061,3.0617,3.0599,3.0667,3.0644,3.0672,3.0672,3.0686,3.0684,3.0765,3.0697,3.0697,3.0697,3.0697,0,3.0344,3.0381,3.0399,3.0425,3.0466,3.0474,3.0514,3.0527,3.0548,3.0577,3.0575,3.0601,3.061,3.0638,3.0644,3.0685,3.0692,3.0697,3.0698,3.0697,3.0696,3.0707,3.0703,3.0699,3.0699,3.0698,3.0698,0,3.0392,3.0406,3.0452,3.048,3.0488,3.0517,3.0541,3.0566,3.0577,3.0613,3.0622,3.0638,3.0672,3.0682,3.0721,3.0725,3.0773,3.0771,3.0766,3.0765,3.0794,3.0791,3.0882,3.0895,3.082,3.0821,3.0821,0,3.0428,3.0456,3.0488,3.0508,3.0524,3.0555,3.0576,3.0585,3.0606,3.0637,3.0659,3.0692,3.0719,3.0773,3.0788,3.0819,3.0817,3.0847,3.0821,3.082,3.0817,3.0815,3.0818,3.0851,3.0852,3.0853,3.0853,0,3.0489,3.0496,3.0525,3.0559,3.0583,3.0609,3.0634,3.0651,3.0664,3.0688,3.0723,3.0744,3.0786,3.0819,3.0851,3.0865,3.0862,3.0862,3.087,3.0869,3.0864,3.0867,3.0778,3.0859,3.0859,3.0858,3.0858,3.0858,3.0532,3.0558,3.0585,3.0619,3.064,3.0664,3.069,3.0705,3.0735,3.0771,3.0774,3.0813,3.0838,3.088,3.0896,3.0926,3.0917,3.0929,3.0932,3.0934,3.0937,3.0861,3.0932,3.0932,3.0932,3.0931,3.0931,0,3.0593,3.0612,3.0643,3.068,3.0707,3.0703,3.0732,3.0754,3.0788,3.0813,3.0841,3.0882,3.0915,3.0934,3.0967,3.0987,3.0986,3.0995,3.0993,3.0997,3.0943,3.0932,3.0996,3.0996,3.0996,3.0995,3.0995,3.0995,3.0629,3.0673,3.0682,3.0737,3.0754,3.0793,3.081,3.0832,3.0852,3.0899,3.0927,3.094,3.0962,3.0998,3.1028,3.1033,3.1045,3.1055,3.1058,3.1007,3.1,3.0994,3.0984,3.1057,3.1058,3.111,3.111,3.1111]},{"header":{"parameterUnit":"m.s-1","parameterCategory":1,"la1":30.2991,"la2":30.254,"lo1":-89.0895,"lo2":-89.0444,"dy":0.0017,"dx":0.0017,"nx":28,"ny":28,"refTime":"2025-12-29T09:00:00:Z","depth":0,"parameterNumber":3,"parameterNumberName":"V-component_of_WINDS"},"data":[0,0,0,0,0,0,0,0,0,0,0,0,0,0,0,0,0,0,0,0,0,0,0,0,0,0,0,0,0,0,0,0,0,0,0,0,0,0,0,0,0,0,0,0,0,0,0,0,0,0,0,0,0,0,0,0,0,0,-10.0313,-10.0315,0,-10.0478,-10.0479,-10.0481,-10.0394,-10.0389,-10.0385,-10.0381,-10.0541,-10.0549,-10.0558,0,0,0,0,0,0,0,0,0,0,0,0,0,-9.9918,-9.9926,-10.0313,-10.0315,-10.0317,-10.0477,-10.048,-10.0482,-10.0394,-10.0389,-10.0384,-10.0379,-10.0538,-10.0548,-10.0558,0,0,0,0,0,0,0,0,0,0,0,0,0,-10.0087,-9.9929,-10.0313,-10.0293,-10.0293,-10.0477,-10.048,-10.0482,-10.0395,-10.0389,-10.0382,-10.0376,-10.0535,-10.0547,-10.056,-10.077,0,0,-10.0598,-10.0604,0,0,0,0,0,0,0,0,-10.0077,-10.0101,-10.0294,-10.0295,-10.0295,-10.0408,-10.0399,-10.0578,-10.0397,-10.0356,-10.038,-10.0373,-10.0502,-10.0517,-10.0562,-10.0777,-10.0784,-10.0599,-10.0607,-10.0612,-10.0616,0,0,0,0,0,0,0,-10.0066,-10.0094,-10.0378,-10.0297,-10.0298,-10.0274,-10.0291,-10.0433,-10.0464,-10.0359,-10.0353,-10.0375,-10.0501,-10.055,-10.0565,-10.0787,-10.0599,-10.061,-10.0618,-10.0623,-10.1185,-10.1192,0,0,0,0,0,0,-10.0056,-10.0085,-10.0373,-10.0383,-10.0168,-10.0287,-10.0305,-10.0379,-10.0462,-10.0469,-10.038,-10.037,-10.0532,-10.055,-10.057,-10.0824,-10.0612,-10.0624,-10.0631,-10.1178,-10.1187,-10.1195,0,0,0,0,0,0,-10.0048,-10.0083,-10.0366,-10.0232,-10.0267,-10.0301,-10.0384,-10.0385,-10.0434,-10.0478,-10.0482,-10.0425,-10.0527,-10.0552,-10.0722,-10.0828,-10.063,-10.0641,-10.1169,-10.1181,-10.1191,-10.1331,0,0,0,0,0,0,-10.0037,-10.008,-10.0162,-10.0235,-10.0274,-10.0517,-10.039,-10.0393,-10.0457,-10.0446,-10.0521,-10.0527,-10.0524,-10.0704,-10.0735,-10.0842,-10.0651,-10.116,-10.1174,-10.1187,-10.1317,-10.1346,-10.137,0,0,0,0,0,-10.0023,-10.0192,-10.0166,-10.0201,-10.0377,-10.0523,-10.0546,-10.0541,-10.0466,-10.0548,-10.0576,-10.0525,-10.0812,-10.0722,-10.0756,-10.0868,-10.1153,-10.117,-10.1186,-10.1306,-10.134,-10.137,0,0,0,0,0,0,-10.0127,-10.0201,-10.0173,-10.0371,-10.0442,-10.0508,-10.0611,-10.0577,-10.0668,-10.0653,-10.0641,-10.0658,-10.0836,-10.0868,-10.0767,-10.1077,-10.0971,-10.0995,-10.105,-10.1083,-10.1109,-10.1097,-10.0661,0,0,0,0,0,-10.0173,-10.0288,-10.0346,-10.0515,-10.0553,-10.0576,-10.064,-10.063,-10.0702,-10.0731,-10.0771,-10.0841,-10.0947,-10.1016,-10.1116,-10.1322,-10.1337,-10.1416,-10.1442,-10.1464,-10.1485,-10.1598,-10.1634,-10.125,-10.125,-10.1249,0,0,-10.0269,-10.0324,-10.0397,-10.0538,-10.0591,-10.071,-10.0602,-10.073,-10.0818,-10.0749,-10.0913,-10.0946,-10.1022,-10.1212,-10.1297,-10.1245,-10.1595,-10.1485,-10.1502,-10.1511,-10.1619,-10.1656,-10.1688,-10.1261,-10.1259,-10.1257,0,0,-10.0504,-10.0558,-10.0706,-10.0763,-10.0848,-10.0863,-10.0899,-10.0971,-10.0991,-10.1156,-10.1108,-10.1211,-10.1393,-10.1451,-10.1504,-10.1766,-10.1722,-10.1798,-10.1936,-10.2047,-10.2077,-10.2104,-10.2199,-10.2233,-10.1819,-10.1819,-10.182,0,-10.0612,-10.0791,-10.0785,-10.092,-10.0983,-10.0931,-10.1081,-10.1135,-10.1247,-10.1291,-10.1232,-10.1462,-10.151,-10.1713,-10.1778,-10.1822,-10.1862,-10.1789,-10.2074,-10.21,-10.2125,-10.2216,-10.2251,-10.1828,-10.1827,-10.1826,-10.1825,0,-10.092,-10.1044,-10.1153,-10.1267,-10.1343,-10.1484,-10.1499,-10.1576,-10.1561,-10.1582,-10.1752,-10.1808,-10.1919,-10.1967,-10.1951,-10.2169,-10.2134,-10.2075,-10.1967,-10.2171,-10.2256,-10.229,-10.1841,-10.1838,-10.1835,-10.1833,0,0,-10.1223,-10.1335,-10.1375,-10.1427,-10.1518,-10.1613,-10.1752,-10.1865,-10.1932,-10.2011,-10.2127,-10.2285,-10.2231,-10.2292,-10.2282,-10.238,-10.2586,-10.2308,-10.231,-10.2359,-10.2831,-10.2876,-10.2916,-10.2558,-10.2565,-10.257,-10.2825,0,-10.1465,-10.1712,-10.1713,-10.1939,-10.2055,-10.2008,-10.2129,-10.2198,-10.2222,-10.2322,-10.2347,-10.246,-10.238,-10.2417,-10.2511,-10.2541,-10.268,-10.2522,-10.2665,-10.267,-10.2648,-10.296,-10.3007,-10.3245,-10.2858,-10.2863,-10.2867,0,-10.1781,-10.1875,-10.2115,-10.2192,-10.224,-10.235,-10.2454,-10.2551,-10.2628,-10.2638,-10.2709,-10.2686,-10.2826,-10.2715,-10.2909,-10.2802,-10.286,-10.2884,-10.2893,-10.2906,-10.2781,-10.2982,-10.3321,-10.3357,-10.2919,-10.2915,-10.2911,0,-10.198,-10.2166,-10.2334,-10.238,-10.2474,-10.2552,-10.2594,-10.2665,-10.2733,-10.2824,-10.2868,-10.2973,-10.3031,-10.3112,-10.3117,-10.3036,-10.3313,-10.3202,-10.3325,-10.3326,-10.3386,-10.3382,-10.3739,-10.3423,-10.3422,-10.3421,-10.3421,0,-10.2251,-10.24,-10.2426,-10.2529,-10.2694,-10.2694,-10.2857,-10.2891,-10.2955,-10.3064,-10.3028,-10.3131,-10.3132,-10.3236,-10.324,-10.3401,-10.3427,-10.3439,-10.3438,-10.3443,-10.3442,-10.3481,-10.3465,-10.3431,-10.3429,-10.3427,-10.3425,0,-10.2501,-10.2524,-10.2705,-10.2781,-10.2803,-10.2922,-10.2986,-10.3084,-10.3106,-10.3244,-10.3276,-10.331,-10.3431,-10.3446,-10.3585,-10.3588,-10.3783,-10.3764,-10.3758,-10.3755,-10.3879,-10.3867,-10.4274,-10.4328,-10.3976,-10.3979,-10.3982,0,-10.2673,-10.2787,-10.2876,-10.2949,-10.2996,-10.3112,-10.3183,-10.3187,-10.3262,-10.3361,-10.3447,-10.3566,-10.366,-10.3856,-10.3891,-10.3999,-10.3983,-10.4118,-10.3998,-10.4,-10.3986,-10.398,-10.3992,-10.4141,-10.4145,-10.4148,-10.4151,0,-10.2976,-10.2983,-10.3088,-10.32,-10.3287,-10.3373,-10.3454,-10.3515,-10.3529,-10.3615,-10.3741,-10.3815,-10.396,-10.4078,-10.4185,-10.4225,-10.4192,-10.4189,-10.4223,-10.4229,-10.4221,-10.4229,-10.3822,-10.4179,-10.4176,-10.4174,-10.4173,-10.4171,-10.3192,-10.3293,-10.3373,-10.3492,-10.3555,-10.3633,-10.373,-10.3767,-10.3872,-10.3993,-10.3989,-10.4127,-10.4202,-10.4343,-10.4392,-10.4499,-10.4454,-10.4504,-10.4516,-10.4529,-10.4542,-10.4205,-10.4518,-10.4518,-10.4517,-10.4516,-10.4516,0,-10.3495,-10.3545,-10.3655,-10.3773,-10.3867,-10.383,-10.3919,-10.4,-10.4123,-10.4198,-10.4294,-10.4439,-10.4554,-10.4601,-10.4713,-10.479,-10.4778,-10.482,-10.4814,-10.4825,-10.4575,-10.4535,-10.4829,-10.4829,-10.4829,-10.4828,-10.4828,-10.4828,-10.3663,-10.3832,-10.3849,-10.4049,-10.4097,-10.4236,-10.429,-10.4362,-10.4422,-10.4587,-10.4684,-10.4715,-10.4779,-10.4896,-10.5,-10.5011,-10.5054,-10.5104,-10.5108,-10.4874,-10.4842,-10.4812,-10.4774,-10.5113,-10.5113,-10.5348,-10.535,-10.5352]}]]